Lake Louise, Canada 16 day weather forecast

Slopes altitude range 1630 m - 2730m

Number of lifts: 26 Pistes: 100km

In some cases the lift and piste totals shown are for the ski domain (e.g. Three Valleys) rather than individual resort (e.g. Courchevel)

Overview

The 16 day weather forecast is fully updated 4 times every day.

    • Sat 18 AUG 2018
    • Sat 18
    • 5C 8C
    • Sun 19 AUG 2018
    • Sun 19
    • 3C 6C
    • Mon 20 AUG 2018
    • Mon 20
    • 3C 6C
    • Tue 21 AUG 2018
    • Tue 21
    • 4C 7C
    • Wed 22 AUG 2018
    • Wed 22
    • 6C 10C
    • Thu 23 AUG 2018
    • Thu 23
    • 9C 10C
    • Fri 24 AUG 2018
    • Fri 24
    • 5C 9C
    • Sat 25 AUG 2018
    • Sat 25
    • 2C 3C
    • Sun 26 AUG 2018
    • Sun 26
    • 2C 4C
    • Mon 27 AUG 2018
    • Mon 27
    • 1C 4C
    • Tue 28 AUG 2018
    • Tue 28
    • 1C 13C
    • Wed 29 AUG 2018
    • Wed 29
    • 7C 13C
    • Thu 30 AUG 2018
    • Thu 30
    • 5C 12C
    • Fri 31 AUG 2018
    • Fri 31
    • 5C 16C
    • Sat 01 SEP 2018
    • Sat 01
    • 8C 19C
    • Sun 02 SEP 2018
    • Sun 02
    • 9C 20C

Date:

Time Type 0°C level Temp Chill Snow Cloud Speed Gust Dir Press
12:00 3808m 8°C 8_1 0cm 0% 1mph 2mph 1022mB
15:00 3810m 11°C 11_4 0cm 0% 4mph 6mph 1022mB
18:00 3654m 15°C 15_3 0cm 21% 3mph 7mph 1022mB
21:00 3747m 14°C 14_2 0cm 91% 2mph 7mph 1021mB
0:00 3848m 14°C 14_2 0cm 70% 2mph 10mph 1020mB
3:00 3860m 9°C 9_4 0cm 0% 4mph 5mph 1022mB
6:00 3857m 6°C 6_4 0cm 14% 4mph 5mph 1024mB
9:00 3777m 4°C 4_2 0cm 68% 2mph 3mph 1024mB
12:00 3649m 6°C 6_3 0cm 37% 3mph 3mph 1024mB
15:00 3561m 8°C 8_4 0cm 16% 4mph 5mph 1024mB
18:00 3457m 13°C 13_3 0cm 56% 3mph 3mph 1022mB
21:00 3656m 13°C 13_5 0cm 85% 5mph 4mph 1021mB
0:00 3729m 12°C 12_5 0cm 92% 5mph 6mph 1020mB
3:00 3713m 8°C 8_6 0cm 96% 6mph 7mph 1022mB
6:00 3338m 6°C 6_6 0cm 74% 6mph 7mph 1025mB
9:00 3144m 6°C 6_6 0cm 91% 6mph 8mph 1026mB
12:00 3095m 6°C 6_4 0cm 75% 4mph 5mph 1026mB
15:00 3209m 7°C 7_4 0cm 0% 4mph 5mph 1026mB
18:00 3286m 11°C 11_3 0cm 0% 3mph 3mph 1024mB
21:00 3633m 11°C 11_1 0cm 0% 1mph 1mph 1021mB
0:00 3849m 11°C 11_4 0cm 0% 4mph 5mph 1019mB
3:00 3884m 9°C 9_2 0cm 87% 2mph 3mph 1021mB
6:00 4052m 7°C 7_2 0cm 66% 2mph 3mph 1022mB
9:00 4001m 5°C 5_0 0cm 6% 0mph 0mph 1022mB
12:00 4370m 7°C 7_2 0cm 3% 2mph 3mph 1021mB
15:00 4537m 11°C 11_3 0cm 0% 3mph 4mph 1020mB
18:00 4685m 16°C 16_5 0cm 8% 5mph 5mph 1018mB
21:00 4771m 16°C 16_6 0cm 0% 6mph 7mph 1016mB
0:00 4873m 16°C 16_8 0cm 0% 8mph 10mph 1014mB
3:00 5043m 12°C 12_5 0cm 0% 5mph 6mph 1016mB
6:00 5053m 10°C 10_5 0cm 0% 5mph 6mph 1016mB
9:00 5010m 8°C 8_4 0cm 0% 4mph 5mph 1016mB
12:00 4962m 10°C 10_4 0cm 0% 4mph 5mph 1016mB
15:00 4891m 13°C 13_4 0cm 0% 4mph 5mph 1015mB
18:00 4766m 18°C 18_6 0cm 0% 6mph 7mph 1012mB
21:00 4571m 18°C 18_11 0cm 0% 11mph 12mph 1010mB
0:00 4312m 18°C 18_14 0cm 0% 14mph 14mph 1008mB
3:00 4264m 13°C 13_7 0cm 0% 7mph 10mph 1009mB
6:00 4170m 10°C 10_3 0cm 0% 3mph 5mph 1010mB
9:00 4091m 9°C 9_3 0cm 26% 3mph 4mph 1010mB
12:00 3990m 10°C 10_3 0cm 63% 3mph 4mph 1009mB
15:00 3857m 11°C 11_5 0cm 99% 5mph 7mph 1009mB
18:00 3787m 16°C 16_9 0cm 67% 9mph 13mph 1007mB
21:00 3887m 16°C 16_15 0cm 11% 15mph 17mph 1005mB
0:00 3845m 16°C 16_15 0cm 54% 15mph 18mph 1004mB
3:00 3836m 10°C 10_3 0cm 99% 3mph 4mph 1005mB
6:00 3606m 9°C 9_5 0cm 98% 5mph 6mph 1006mB
9:00 3325m 7°C 7_3 0cm 99% 3mph 4mph 1006mB
12:00 3215m 9°C 9_5 0cm 98% 5mph 5mph 1006mB
15:00 3065m 7°C 7_6 0cm 99% 6mph 7mph 1007mB
18:00 3042m 7°C 7_4 0cm 100% 4mph 6mph 1008mB
21:00 3112m 6°C 6_9 0cm 99% 9mph 17mph 1008mB
0:00 3294m 6°C 6_19 0cm 83% 19mph 24mph 1008mB
3:00 3161m 6°C 6_8 0cm 2% 8mph 14mph 1010mB
6:00 3035m 3°C 3_5 0cm 34% 5mph 6mph 1011mB
9:00 2960m 2°C 2_4 0cm 10% 4mph 6mph 1012mB
12:00 2891m 3°C 3_4 0cm 32% 4mph 5mph 1012mB
15:00 2828m 5°C 5_6 0cm 70% 6mph 8mph 1011mB
18:00 3025m 9°C 9_8 0cm 72% 8mph 11mph 1009mB
21:00 3184m 10°C 10_5 0cm 100% 5mph 11mph 1007mB
0:00 3216m 10°C 10_3 0cm 100% 3mph 7mph 1007mB
3:00 3007m 4°C 4_5 0cm 61% 5mph 7mph 1008mB
6:00 2791m 4°C 4_4 0cm 81% 4mph 7mph 1010mB
9:00 2608m 3°C 3_3 0cm 100% 3mph 5mph 1011mB
12:00 2529m 4°C 4_4 0cm 94% 4mph 6mph 1013mB
15:00 2459m 3°C 3_3 4cm 100% 3mph 4mph 1015mB
18:00 2669m 7°C 7_3 0cm 99% 3mph 5mph 1015mB
21:00 2870m 7°C 7_5 0cm 99% 5mph 8mph 1015mB
0:00 2961m 7°C 7_5 0cm 99% 5mph 9mph 1014mB
3:00 2872m 5°C 5_3 0cm 100% 3mph 3mph 1015mB
6:00 2785m 4°C 4_4 0cm 100% 4mph 5mph 1016mB
9:00 2719m 3°C 3_4 1cm 100% 4mph 4mph 1016mB
12:00 2627m 4°C 4_3 1cm 100% 3mph 4mph 1016mB
15:00 2462m 4°C 4_5 0cm 100% 5mph 8mph 1017mB
18:00 2500m 4°C 4_6 0cm 100% 6mph 9mph 1016mB
21:00 2486m 3°C 3_5 0cm 100% 5mph 6mph 1016mB
0:00 2639m 3°C 3_4 0cm 100% 4mph 5mph 1016mB
3:00 2688m 2°C 2_1 0cm 90% 1mph 1mph 1018mB
6:00 2430m 0°C 0_3 0cm 49% 3mph 3mph 1020mB
Afternoon 0mm 0 2910m 13°C 13_2 0cm 0% 2mph 2mph 1018mB
Morning 0mm 0 3394m 7°C 7_7 0cm 33% 7mph 11mph 1016mB
Afternoon 0mm 0 3836m 13°C 13_13 0cm 82% 13mph 25mph 1010mB
Morning 0mm 0 3601m 7°C 7_5 0cm 49% 5mph 6mph 1010mB
Afternoon 0mm 0 3320m 12°C 12_3 0cm 50% 3mph 4mph 1010mB
Morning 0mm 0.625 3457m 5°C 5_3 0cm 67% 3mph 4mph 1014mB
Afternoon 0.854167mm 0 3918m 16°C 16_4 0cm 14% 4mph 7mph 1013mB
Morning 0.09375mm 0 3875m 10°C 10_6 0cm 39% 6mph 7mph 1016mB
Afternoon 0.973958mm 0 3838m 19°C 19_5 0cm 12% 5mph 9mph 1015mB
Morning 0mm 0 4032m 11°C 11_6 0cm 10% 6mph 7mph 1017mB
Afternoon 0.401042mm 0 4005m 20°C 20_2 0cm 3% 2mph 4mph 1015mB
Morning 0.578125mm 0 3910m 11°C 11_6 0cm 38% 6mph 7mph 1015mB

16 day outlook at a glance

Forecast issued: 18/08/2018 18:53:17

Chat

Your comments and questions. In a resort? Let us know what it's like!


Characters left 250

For terms and conditions see Readers Comments on the Cookie and privacy policy page.